User: anonymous   Login
Location: Tyler Bend Campground
(35.9875°N, 92.7606°W)
Time: 04:31:01
(UTC-05:00)
Language:

CZ-2C R/B - Orbit

View from above orbital plane
View from above orbital plane
View from above satellite
View from above satellite

Ground track
Ground track

The orbit data is extracted from the following two-line orbital elements,

1 36089U 09061B   17117.91616237 +.00000007 +00000-0 +12993-4 0  9999
2 36089 098.0521 121.9475 0081622 199.6811 219.2110 14.49656148394332
Epoch (UTC): 27 April 2017 21:59:16
Eccentricity: 0.0081622
inclination: 98.0521°
perigee height: 669 km
apogee height: 785 km
right ascension of ascending node: 121.9475°
argument of perigee: 199.6811°
revolutions per day: 14.49656148
mean anomaly at epoch: 219.2110°
orbit number at epoch: 39433

The dashed part of the orbit path shows where the satellite is in the earth's shadow,  

DLR